Change the Weather History Date:

Tuesday, October 22, 2013

  Actual Average (KUZA) Record (KUZA)
Temperature  
Mean Temperature 60 °F -  
Max Temperature 66 °F 70 °F 85 °F (1949)
Min Temperature 53 °F 47 °F 30 °F (1972)
Degree Days  
Heating Degree Days 6    
Growing Degree Days 10 (Base 50)    
Moisture  
Dew Point 59 °F    
Average Humidity 98    
Maximum Humidity 100    
Minimum Humidity 83    
Precipitation  
Precipitation 0.00 in - - ()
Sea Level Pressure  
Sea Level Pressure 29.94 in    
Wind  
Wind Speed 0 mph (SW)    
Max Wind Speed 6 mph    
Max Gust Speed -    
Visibility 9 miles    
Events      
Averages and records for this station are not official NWS values.
T = Trace of Precipitation, MM = Missing Value Source: NWS Daily Summary

Daily Weather History Graph

Daily Weather History Graph

Search for Another Location

Airport or City:

Trip Planner

Search our weather history database for the weather conditions in past years. The results will help you decide how hot, cold, wet, or windy it might be!

Date:

Astronomy

Oct. 22, 2013 Rise Set
Actual Time 7:35 AM EDT 6:39 PM EDT
Civil Twilight 7:09 AM EDT 7:05 PM EDT
Nautical Twilight 6:40 AM EDT 7:35 PM EDT
Astronomical Twilight 6:10 AM EDT 8:04 PM EDT
Moon 9:25 PM EDT (10/22) 10:56 AM EDT (10/22)
Length of Visible Light 11h 56m
Length of Day
11h 04m
Waning Gibbous, 87% of the Moon is Illuminated
Oct 22
Waning Gibbous
Oct 26
Last Quarter
Nov 3
New
Nov 10
First Quarter
Nov 17
Full

Hourly Weather History & Observations

Time (EDT) Temp. Dew Point Humidity Pressure Visibility Wind Dir Wind Speed Gust Speed Precip Events Conditions
12:15 AM 53.6 °F 53.6 °F 100% 30.04 in 10.0 mi Calm Calm - N/A   Clear
12:35 AM 53.6 °F 53.6 °F 100% 30.04 in 10.0 mi Calm Calm - N/A   Clear
12:55 AM 53.6 °F 53.6 °F 100% 30.04 in 10.0 mi Calm Calm - N/A   Clear
1:15 AM 53.6 °F 53.6 °F 100% 30.04 in 10.0 mi Calm Calm - N/A   Clear
1:35 AM 55.4 °F 55.4 °F 100% 30.04 in 10.0 mi Calm Calm - N/A   Clear
1:55 AM 55.4 °F 55.4 °F 100% 30.04 in 10.0 mi Calm Calm - N/A   Clear
2:15 AM 55.4 °F 55.4 °F 100% 30.05 in 10.0 mi Calm Calm - N/A   Clear
2:35 AM 55.4 °F 55.4 °F 100% 30.04 in 10.0 mi Calm Calm - N/A   Clear
2:55 AM 55.4 °F 55.4 °F 100% 30.03 in 10.0 mi Calm Calm - N/A   Clear
3:15 AM 55.4 °F 55.4 °F 100% 30.03 in 10.0 mi Calm Calm - N/A   Clear
3:35 AM 55.4 °F 55.4 °F 100% 30.02 in 10.0 mi Calm Calm - N/A   Clear
3:55 AM 55.4 °F 55.4 °F 100% 30.01 in 10.0 mi Calm Calm - N/A   Clear
4:15 AM 55.4 °F 55.4 °F 100% 29.99 in 10.0 mi Calm Calm - N/A   Clear
4:35 AM 53.6 °F 53.6 °F 100% 29.98 in 8.0 mi Calm Calm - N/A   Clear
4:55 AM 53.6 °F 53.6 °F 100% 29.98 in 9.0 mi Calm Calm - N/A   Partly Cloudy
5:15 AM 55.4 °F 55.4 °F 100% 29.99 in 10.0 mi Calm Calm - N/A   Partly Cloudy
5:35 AM 53.6 °F 53.6 °F 100% 29.98 in 9.0 mi Calm Calm - N/A   Clear
5:55 AM 55.4 °F 55.4 °F 100% 29.99 in 10.0 mi Calm Calm - N/A   Mostly Cloudy
6:15 AM 55.4 °F 55.4 °F 100% 29.99 in 10.0 mi Calm Calm - N/A   Mostly Cloudy
6:35 AM 57.2 °F 57.2 °F 100% 29.99 in 10.0 mi Calm Calm - N/A   Mostly Cloudy
6:55 AM 57.2 °F 57.2 °F 100% 29.99 in 10.0 mi WSW 3.5 mph - N/A   Mostly Cloudy
7:15 AM 57.2 °F 57.2 °F 100% 30.00 in 10.0 mi Calm Calm - N/A   Mostly Cloudy
7:35 AM 57.2 °F 57.2 °F 100% 29.99 in 10.0 mi Calm Calm - N/A   Mostly Cloudy
7:55 AM 57.2 °F 57.2 °F 100% 29.99 in 10.0 mi Calm Calm - N/A   Mostly Cloudy
8:15 AM 57.2 °F 57.2 °F 100% 29.99 in 10.0 mi Calm Calm - N/A   Mostly Cloudy
8:35 AM 57.2 °F 57.2 °F 100% 29.99 in 10.0 mi Calm Calm - N/A   Mostly Cloudy
8:55 AM 57.2 °F 57.2 °F 100% 29.99 in 10.0 mi Calm Calm - N/A   Mostly Cloudy
9:15 AM 57.2 °F 57.2 °F 100% 29.99 in 10.0 mi Calm Calm - N/A   Mostly Cloudy
9:35 AM 57.2 °F 57.2 °F 100% 29.97 in 10.0 mi Calm Calm - N/A   Mostly Cloudy
9:55 AM 59.0 °F 59.0 °F 100% 29.98 in 10.0 mi Calm Calm - N/A   Scattered Clouds
10:15 AM 59.0 °F 59.0 °F 100% 29.98 in 10.0 mi Calm Calm - N/A   Scattered Clouds
10:35 AM 59.0 °F 59.0 °F 100% 29.98 in 10.0 mi Calm Calm - N/A   Scattered Clouds
10:55 AM 60.8 °F 59.0 °F 94% 29.97 in 10.0 mi Calm Calm - N/A   Partly Cloudy
11:15 AM 60.8 °F 60.8 °F 100% 29.97 in 10.0 mi Calm Calm - N/A   Clear
11:35 AM 62.6 °F 60.8 °F 94% 29.97 in 10.0 mi SW 3.5 mph - N/A   Partly Cloudy
11:55 AM 62.6 °F 60.8 °F 94% 29.96 in 10.0 mi WSW 4.6 mph - N/A   Partly Cloudy
12:15 PM 64.4 °F 60.8 °F 88% 29.95 in 10.0 mi West 3.5 mph - N/A   Partly Cloudy
12:35 PM 64.4 °F 60.8 °F 88% 29.95 in 10.0 mi West 5.8 mph - N/A   Partly Cloudy
12:55 PM 64.4 °F 62.6 °F 94% 29.95 in 10.0 mi SW 3.5 mph - N/A   Scattered Clouds
1:15 PM 64.4 °F 62.6 °F 94% 29.93 in 10.0 mi Calm Calm - N/A   Scattered Clouds
1:35 PM 64.4 °F 62.6 °F 94% 29.93 in 10.0 mi SW 3.5 mph - N/A   Scattered Clouds
1:55 PM 64.4 °F 62.6 °F 94% 29.91 in 10.0 mi SW 3.5 mph - N/A   Partly Cloudy
2:15 PM 66.2 °F 60.8 °F 83% 29.91 in 10.0 mi SW 4.6 mph - N/A   Scattered Clouds
2:35 PM 66.2 °F 62.6 °F 88% 29.90 in 10.0 mi Calm Calm - N/A   Partly Cloudy
2:55 PM 64.4 °F 62.6 °F 94% 29.89 in 10.0 mi Calm Calm - N/A   Scattered Clouds
3:15 PM 64.4 °F 62.6 °F 94% 29.89 in 10.0 mi Calm Calm - N/A   Mostly Cloudy
3:35 PM 64.4 °F 62.6 °F 94% 29.89 in 10.0 mi Calm Calm - N/A   Mostly Cloudy
3:55 PM 64.4 °F 60.8 °F 88% 29.89 in 10.0 mi SW 3.5 mph - N/A   Scattered Clouds
4:15 PM 64.4 °F 60.8 °F 88% 29.89 in 10.0 mi Calm Calm - N/A   Scattered Clouds
4:35 PM 64.4 °F 62.6 °F 94% 29.88 in 10.0 mi Calm Calm - N/A   Scattered Clouds
4:55 PM 64.4 °F 62.6 °F 94% 29.87 in 10.0 mi Calm Calm - N/A   Mostly Cloudy
5:15 PM 64.4 °F 62.6 °F 94% 29.87 in 10.0 mi Calm Calm - N/A   Mostly Cloudy
5:35 PM 64.4 °F 62.6 °F 94% 29.86 in 10.0 mi Calm Calm - N/A   Mostly Cloudy
5:55 PM 64.4 °F 62.6 °F 94% 29.86 in 10.0 mi Calm Calm - N/A   Mostly Cloudy
6:15 PM 64.4 °F 64.4 °F 100% 29.86 in 10.0 mi Calm Calm - N/A   Mostly Cloudy
6:35 PM 64.4 °F 64.4 °F 100% 29.86 in 10.0 mi Calm Calm - N/A   Overcast
6:55 PM 62.6 °F 62.6 °F 100% 29.86 in 10.0 mi Calm Calm - N/A   Mostly Cloudy
7:15 PM 62.6 °F 62.6 °F 100% 29.86 in 10.0 mi SSE 3.5 mph - N/A   Mostly Cloudy
7:35 PM 62.6 °F 62.6 °F 100% 29.86 in 10.0 mi Calm Calm - N/A   Mostly Cloudy
7:55 PM 62.6 °F 62.6 °F 100% 29.86 in 10.0 mi Calm Calm - N/A   Mostly Cloudy
8:15 PM 60.8 °F 60.8 °F 100% 29.86 in 10.0 mi Calm Calm - N/A   Partly Cloudy
8:35 PM 60.8 °F 60.8 °F 100% 29.86 in 10.0 mi Calm Calm - N/A   Clear
8:55 PM 59.0 °F 59.0 °F 100% 29.86 in 5.0 mi Calm Calm - N/A   Scattered Clouds
9:15 PM 59.0 °F 59.0 °F 100% 29.85 in 6.0 mi SSE 3.5 mph - N/A   Mostly Cloudy
9:35 PM 60.8 °F 60.8 °F 100% 29.85 in 10.0 mi Calm Calm - N/A   Overcast
9:55 PM 59.0 °F 59.0 °F 100% 29.85 in 6.0 mi Calm Calm - N/A   Scattered Clouds
10:15 PM 59.0 °F 59.0 °F 100% 29.85 in 4.0 mi Calm Calm - N/A   Partly Cloudy
10:35 PM 57.2 °F 57.2 °F 100% 29.85 in 1.2 mi Calm Calm - N/A   Mostly Cloudy
11:15 PM 59.0 °F 59.0 °F 100% 29.85 in 7.0 mi Calm Calm - N/A   Overcast
11:35 PM 59.0 °F 59.0 °F 100% 29.84 in 5.0 mi Calm Calm - N/A   Scattered Clouds
11:55 PM 57.2 °F 57.2 °F 100% 29.84 in 3.0 mi Calm Calm - N/A   Partly Cloudy